SCP
0 -0 -0 -0 0 0 0 0 0 0 0 0 0 0 0 0 0 0 0 0 0 0 0 -0 -0 -0 -0 -0 -0 0 0 -0 -0 -0 -0 -0 -0 -0 -0 -0 -0 -0 -0 -0 -0 -0 -0 -0 -0
0 0 -0 0 0 0 0 0 0 0 0 0 0 0 0 0 0 0 0 0 0 0 0 0 0 -0 -0 -0 -0 0 -0 -0 -0 -0 -0 -0 -0 -0 -0 -0 -0 -0 -0 -0 -0 -0 -0 -0 -0
0 -0 0 0 0 0 0 0 0 0 0 0 0 0 0 0 0 -0 0 0 0 0 0 0 0 -0 -0 -0 -0 0 0 -0 -0 -0 -0 -0 -0 -0 -0 -0 -0 -0 -0 -0 -0 -0 -0 -0 -0
0 0 0 0 0 0 0 0 0 0 0 0 0 0 0 0 0 0 0 0 0 0 0 0 0 0 0 -0 -0 0 0 0 0 0 0 -0 -0 -0 -0 -0 -0 -0 -0 -0 -0 -0 -0 -0 -0
0 0 0 0 0 0 0 0 0 -0 0 0 0 0 0 0 0 0 0 0 0 0 0 0 0 0 0 -0 -0 -0 0 0 0 0 0 0 0 -0 -0 -0 -0 -0 -0 -0 -0 -0 -0 -0 -0
0 0 0 0 0 0 0 0 0 -0 0 0 0 0 0 0 0 0 0 0 0 0 0 0 0 0 0 0 0 0 0 0 0 0 0 0 0 0 -0 -0 -0 0 -0 -0 -0 -0 -0 -0 -0
0 0 0 0 0 0 0 0 0 0 0 0 0 0 0 0 0 0 0 0 0 0 0 0 0 0 0 0 0 0 0 0 0 0 0 0 0 0 -0 -0 -0 -0 0 0 -0 -0 0 -0 -0
0 0 0 0 0 0 0 0 0 0 0 0 0 0 0 0 0 0 0 0 0 0 0 0 0 0 0 0 0 0 0 0 0 0 0 0 0 0 0 0 -0 -0 0 0 0 0 0 0 0
0 0 0 0 0 0 0 0 0 0 0 0 0 0 0 0 0 0 0 0 0 0 0 0 0 0 0 0 0 0 0 0 0 0 0 0 0 0 0 0 0 0 0 0 0 0 0 0 0
0 0 0 0 0 0 0 0 0 0 0 0 0 0 0 0 0 0 0 0 0 0 0 0 0 0 0 0 0 0 0 0 0 0 0 0 0 0 0 0 0 0 0 0 -0 -0 0 0 0
0 0 0 0 0 0 0 0 0 0 0 0 0 0 0 0 0 0 0 0 0 0 0 0 0 0 0 0 0 0 0 0 0 0 0 0 0 0 0 0 0 0 0 0 0 0 0 0 0
0 0 0 0 0 0 0 0 0 0 0 0 0 0 0 0 0 0 0 0 0 0 0 0 0 0 0 0 0 0 0 0 0 0 0 0 0 0 0 0 0 0 0 0 0 0 0 0 0
0 0 0 0 0 0 0 0 0 0 0 0 0 0 0 0 0 0 0 0 0 0 0 0 0 0 0 0 0 0 0 0 0 0 0 0 0 0 0 0 0 0 0 0 0 0 0 0 0
0 0 0 0 0 0 0 0 0 0 0 0 0 0 0 0 0 0 0 0 0 0 0 0 0 0 0 0 0 0 0 0 0 0 0 0 0 0 0 0 0 0 0 0 0 0 0 0 0
0 0 0 0 0 0 0 0 0 0 0 0 0 0 0 0 0 0 0 0 0 0 0 0 0 0 0 0 0 0 0 0 0 0 0 0 0 0 0 0 0 0 0 0 0 0 0 0 0
0 0 0 0 0 0 0 0 0 0 0 0 0 0 0 0 0 0 0 0 0 0 0 0 0 0 0 0 0 0 0 0 0 0 0 0 0 0 0 0 0 0 0 0 0 0 0 0 0
0 0 0 0 0 0 0 0 0 0 0 0 0 0 0 0 0 0 0 0 0 0 0 0 0 0 0 0 0 0 0 0 0 0 0 0 0 0 0 0 0 0 0 0 0 0 0 0 0
0 0 0 0 0 0 0 0 0 0 0 0 0 0 0 0 0 0 0 0 0 0 0 0 0 0 0 0 0 0 0 0 0 0 0 0 0 0 0 0 0 0 0 0 0 0 0 0 0
0 0 0 0 0 0 0 0 0 0 0 0 0 0 0 0 0 0 0 0 0 0 0 0 0 0 0 0 0 0 0 0 0 0 0 0 0 0 0 0 0 0 0 0 0 0 0 0 0
0 0 0 0 0 0 0 0 0 0 0 0 0 0 0 0 0 0 0 0 0 0 0 0 0 0 0 0 0 0 0 0 0 0 0 0 0 0 0 0 0 0 0 0 0 0 0 0 0
0 0 0 0 0 0 0 0 0 0 0 0 0 0 0 0 0 0 0 0 0 0 0 0 0 0 0 0 0 0 0 0 0 0 0 0 0 0 0 0 0 0 0 0 0 0 0 0 0
0 0 0 0 0 0 0 0 0 0 0 0 0 0 0 0 0 0 0 0 0 0 0 0 0 0 0 0 0 0 0 0 0 0 0 0 0 0 0 0 0 0 0 0 0 0 0 0 0
0 0 0 0 0 0 0 0 0 0 0 0 0 0 0 0 0 0 0 0 0 0 0 0 0 0 0 0 0 0 0 0 0 0 0 0 0 0 0 0 0 0 0 0 0 0 0 0 0
0 0 0 0 0 0 0 0 0 0 0 0 0 0 0 0 0 0 0 0 0 0 0 0 0 0 0 0 0 0 0 0 0 0 0 0 0 0 0 0 0 0 0 0 0 0 0 0 0
0 0 0 0 0 0 0 0 0 0 0 0 0 0 0 0 0 0 0 0 0 0 0 0 0 0 0 0 0 0 0 0 0 0 0 0 0 0 0 0 0 0 0 0 0 0 0 0 0
-0 0 0 0 0 0 0 0 0 0 0 0 0 0 0 0 0 0 0 0 0 0 0 0 0 0 0 0 0 0 0 0 0 0 0 0 0 0 0 0 0 0 0 0 0 0 0 0 0
0 0 0 0 0 0 0 0 0 0 0 0 0 0 0 0 0 0 0 0 0 0 0 0 0 0 0 0 0 0 0 0 0 0 0 0 0 0 0 0 0 0 0 0 0 0 0 0 0
0 0 0 0 0 0 0 0 0 0 0 0 0 0 0 0 0 0 0 0 0 0 0 0 0 0 0 0 0 0 0 0 0 0 0 0 0 0 0 0 0 0 0 0 0 0 0 0 0
0 0 0 0 0 0 0 0 0 0 0 0 0 0 0 0 0 0 0 0 0 0 0 0 0 0 0 0 0 0 0 0 0 0 0 0 0 0 0 0 0 0 0 0 0 0 0 0 0
0 0 0 0 0 0 0 0 0 0 0 0 0 0 0 0 0 0 0 0 0 0 0 0 0 0 0 0 0 0 0 0 0 0 0 0 0 0 0 0 0 0 0 0 0 0 0 0 0
Wind_Speed_500mb
36 32 18 5 9 8 8 5 3 8 7 7 23 10 16 3 5 4 15 38 48 51 49 48 43 39 33 31 37 33 27 31 29 35 31 34 31 29 25 19 15 23 24 18 18 22 20 19 17
35 28 13 5 10 12 8 3 13 8 6 17 17 9 10 4 3 3 31 42 53 52 52 48 46 41 34 34 39 36 34 34 29 34 31 28 25 23 18 15 16 25 24 18 23 23 20 20 22
33 27 8 6 8 15 3 5 2 9 18 16 14 4 5 4 7 14 24 48 53 52 48 47 46 42 38 36 40 37 37 35 32 27 25 21 18 19 20 17 20 21 22 19 19 19 18 19 21
22 6 4 11 21 13 9 2 5 15 11 12 8 9 4 11 10 21 45 53 55 52 47 49 46 42 39 36 36 35 34 33 30 25 19 18 19 20 24 20 20 19 18 17 16 14 14 16 16
17 3 11 14 21 12 11 9 11 18 15 18 15 10 7 11 14 26 52 58 57 53 48 51 45 42 38 34 36 34 28 28 27 25 22 21 26 19 17 22 18 17 15 14 13 11 10 9 10
7 2 14 21 25 15 11 14 12 23 17 15 12 12 8 15 22 32 53 59 56 54 51 49 46 42 38 33 34 33 27 24 29 27 27 26 27 23 19 15 15 13 13 11 9 7 6 5 3
7 8 21 23 24 16 11 11 15 22 23 19 8 12 8 24 28 40 53 58 55 53 51 48 46 43 37 33 32 30 27 26 18 23 25 27 24 19 15 10 9 9 10 10 6 4 2 1 2
6 7 14 17 25 31 6 11 7 23 21 12 14 10 10 32 39 47 54 56 53 55 49 50 50 46 43 37 34 28 25 25 22 19 19 19 21 21 19 15 12 11 10 9 8 8 8 8 7
11 12 22 22 19 17 6 14 10 10 12 15 18 7 11 30 44 52 57 59 57 56 53 57 55 47 44 40 37 32 26 24 24 23 18 17 17 17 16 17 15 14 12 10 10 10 12 12 13
23 20 32 13 12 10 8 12 9 14 19 18 19 23 20 38 48 59 65 68 66 63 59 58 58 49 46 45 41 36 31 27 27 29 25 22 20 17 17 16 14 13 12 10 9 8 11 12 14
17 30 26 17 17 14 12 11 8 14 17 29 33 32 34 44 51 58 65 69 69 62 59 60 60 56 48 46 44 40 36 30 26 23 23 25 23 18 13 12 10 10 9 7 6 7 10 12 13
25 30 37 30 19 10 10 8 9 19 9 7 21 33 40 48 54 60 66 69 70 65 61 59 57 56 52 46 45 42 37 32 27 25 23 25 22 18 16 14 14 12 12 11 11 13 13 13 14
30 35 34 36 20 15 9 19 19 24 21 23 12 31 41 44 46 48 58 64 68 68 65 61 59 56 53 50 45 42 38 33 28 26 24 24 24 21 20 18 17 17 16 15 16 16 17 18 18
4 36 40 33 27 18 20 36 12 18 8 18 21 28 37 42 45 44 52 63 70 69 67 63 59 55 53 51 47 42 38 33 32 30 28 26 25 24 23 22 22 21 21 20 21 21 21 22 23
18 21 21 31 38 27 21 33 28 46 30 14 19 24 33 37 41 47 48 56 61 66 64 65 62 55 55 51 47 44 39 37 35 32 31 30 29 28 27 27 26 25 25 27 27 26 26 27 28
17 21 31 22 29 17 36 47 32 45 42 41 26 25 30 36 39 40 42 44 53 61 65 62 61 58 56 55 50 48 44 41 40 38 36 35 34 33 33 32 29 27 29 30 30 29 30 30 30
21 29 44 32 26 20 37 31 25 20 27 42 34 27 28 31 37 38 39 41 44 57 64 58 56 56 55 54 53 51 46 45 43 42 40 38 36 35 34 34 31 30 33 33 33 33 33 32 31
25 35 23 35 21 20 30 26 5 5 20 31 25 29 31 34 38 39 41 40 43 48 54 52 53 54 50 48 48 48 47 48 49 46 45 39 38 37 37 36 34 35 36 37 38 38 39 38 38
10 16 30 27 11 20 34 27 30 13 12 16 28 29 31 41 32 35 38 42 42 44 49 53 54 53 51 53 52 50 49 44 44 44 43 42 41 41 43 43 40 41 43 42 42 41 38 39 36
33 19 13 11 8 15 16 22 26 24 28 32 28 22 27 27 37 38 38 42 49 49 51 53 56 54 55 54 50 49 44 46 42 40 37 35 39 41 42 41 38 39 43 42 39 39 43 45 43
30 27 21 12 14 9 7 23 17 18 35 25 33 33 24 25 34 35 36 44 46 51 50 49 51 52 52 51 49 51 49 47 44 41 36 37 37 36 36 35 36 36 37 40 37 38 44 42 37
28 22 28 23 14 11 4 12 14 29 26 21 33 33 42 29 27 33 37 42 45 48 46 47 47 47 48 49 52 50 47 47 40 36 33 33 32 33 33 33 35 36 37 39 40 37 35 36 38
11 14 28 26 16 9 8 8 17 4 20 30 33 33 42 40 28 29 32 35 42 45 47 47 47 47 45 45 46 46 46 43 44 42 38 36 35 35 36 37 37 37 38 38 38 37 36 35 37
10 8 7 9 13 17 21 14 9 10 12 5 1 11 25 40 31 30 32 27 28 33 38 43 45 47 47 44 44 45 42 43 44 42 43 43 43 44 46 44 44 44 43 40 38 36 34 32 39
18 23 9 9 12 15 2 12 22 7 4 4 4 3 10 25 34 34 34 32 27 26 28 30 33 36 37 38 40 42 43 43 44 48 46 44 44 45 42 43 45 46 44 42 38 35 34 35 36
31 28 6 11 12 15 4 13 7 3 4 3 5 8 10 15 24 32 31 34 31 28 26 23 22 19 18 20 23 25 26 28 29 30 31 32 34 34 36 39 39 38 37 37 36 34 35 39 42
14 17 4 8 2 6 10 6 17 6 2 7 9 15 15 18 23 27 28 26 26 29 30 22 19 18 16 14 13 11 9 7 7 8 10 14 16 18 23 25 25 26 27 26 31 35 35 39 40
8 13 8 2 9 8 6 8 9 5 7 10 11 18 21 26 32 35 36 36 37 36 38 40 30 31 27 24 22 20 18 14 11 5 1 5 7 11 15 17 19 22 24 27 31 34 36 38 39
6 9 2 4 4 4 3 4 5 2 5 17 16 18 26 34 40 43 45 44 44 43 40 39 35 34 30 24 15 13 12 7 3 3 2 4 4 7 9 11 14 18 22 26 28 32 33 35 37
7 6 19 15 9 2 3 4 5 7 3 18 20 22 31 38 41 43 45 46 47 46 44 41 37 34 31 24 19 14 9 6 3 3 4 7 8 9 10 13 15 17 20 24 27 27 29 31 29
Wind_Direction_500mb
341 345 336 310 242 244 236 206 271 202 200 161 147 175 191 5 219 12 156 166 168 164 166 162 162 163 157 153 147 138 135 133 134 130 128 133 139 138 148 141 139 136 119 129 124 118 102 94 92
337 339 329 274 256 237 212 167 223 201 137 147 155 145 184 133 169 164 151 164 165 166 164 166 165 164 159 155 152 145 146 150 140 145 148 149 152 159 156 147 138 146 130 117 106 104 99 92 88
334 330 283 265 253 246 268 162 248 155 151 173 163 192 157 145 182 160 165 161 163 167 163 169 167 166 161 159 160 156 152 156 152 156 163 170 166 160 155 146 139 126 120 112 103 105 102 92 87
342 331 271 247 247 250 260 262 181 162 191 194 192 170 161 179 165 170 167 164 166 170 168 168 168 170 167 166 164 164 164 173 176 181 179 168 149 140 140 137 124 115 110 111 107 101 101 100 93
334 243 255 253 252 261 236 259 216 190 179 184 187 166 150 192 172 174 167 168 170 171 170 169 171 174 172 172 170 173 174 181 187 189 186 170 143 144 143 133 126 121 119 112 109 109 104 101 95
283 235 240 251 243 256 258 220 204 218 190 170 196 170 160 192 177 173 171 170 172 174 171 170 176 178 178 176 178 179 176 180 192 188 184 167 162 156 158 135 127 137 137 131 122 114 111 113 115
255 245 249 259 265 262 255 180 209 205 191 196 181 199 171 183 174 175 174 171 174 176 172 170 176 182 182 181 180 180 181 184 193 177 174 167 167 179 183 171 160 149 156 155 159 165 162 227 291
205 247 239 240 246 260 234 201 216 187 195 183 177 207 188 196 175 175 176 177 175 179 175 176 177 184 185 185 186 186 184 188 198 188 179 176 173 179 184 185 186 181 180 185 202 222 234 249 265
197 227 239 235 222 242 189 226 185 201 169 187 195 178 187 182 175 176 179 183 183 182 183 184 182 182 184 188 191 192 195 195 199 210 198 193 189 191 200 205 202 201 203 211 223 235 248 263 273
210 226 227 227 225 268 271 248 222 188 189 202 194 201 178 178 183 182 185 187 188 187 188 190 188 184 186 189 194 196 201 204 206 210 206 193 196 199 203 212 214 212 215 224 231 247 261 269 279
215 234 224 223 230 238 273 266 244 230 208 218 210 192 186 183 187 189 191 194 193 191 192 193 193 193 189 191 195 200 204 205 205 207 198 194 191 197 202 204 206 202 201 224 258 284 281 274 281
243 230 232 233 232 200 229 272 253 235 257 177 220 204 197 191 193 194 194 198 196 195 196 195 197 198 198 197 199 205 208 211 213 211 202 203 207 208 212 218 222 223 233 252 269 277 281 282 286
232 238 234 239 227 232 242 251 273 263 258 257 256 205 205 201 198 198 201 202 203 201 200 199 199 199 201 203 204 207 210 213 217 222 219 216 219 221 226 230 236 242 250 257 267 274 279 282 287
297 238 237 242 243 231 237 253 239 258 251 230 224 212 206 205 199 198 199 201 206 205 204 204 203 202 204 207 210 211 212 215 219 223 225 226 229 232 236 241 245 249 254 261 265 271 280 287 290
261 254 238 235 241 237 224 252 231 246 254 248 225 214 210 211 203 209 206 204 207 209 210 210 206 205 209 211 214 216 217 219 223 228 231 232 234 236 240 244 249 254 260 262 267 272 278 283 287
224 227 236 218 207 220 188 248 231 245 240 246 233 220 220 217 214 209 208 209 213 210 214 211 208 210 214 217 219 221 223 225 228 231 234 237 238 239 243 248 252 258 259 263 268 272 277 282 285
217 225 223 231 211 211 204 238 237 221 218 238 229 221 223 218 220 213 209 207 209 211 214 209 209 214 218 221 224 226 229 232 235 237 239 240 241 242 247 252 254 256 260 263 266 270 275 280 286
227 226 221 219 195 220 216 230 215 183 228 244 233 223 227 225 228 222 215 209 213 213 214 211 213 216 218 222 224 227 229 234 236 237 240 242 245 247 251 255 253 253 257 264 269 270 273 277 284
326 242 241 236 231 217 227 221 229 207 207 243 242 234 232 236 231 228 229 225 220 216 214 215 216 216 217 220 222 226 229 231 233 237 242 245 249 251 254 257 259 258 259 262 268 271 275 281 287
250 268 264 256 241 223 235 239 236 221 235 225 239 246 238 230 233 229 226 225 222 220 219 218 220 221 223 225 228 233 238 240 243 245 246 247 248 250 253 256 262 266 264 261 266 268 274 278 282
235 236 252 274 326 226 259 247 226 231 240 249 242 240 244 238 230 226 222 222 222 221 220 223 226 227 229 231 234 236 240 243 244 243 244 245 247 250 255 259 264 269 272 271 270 269 271 275 283
223 217 230 252 286 247 248 256 197 227 226 223 238 230 236 237 235 226 216 217 217 218 219 221 222 225 228 228 232 237 243 247 251 255 254 255 253 254 254 256 258 262 267 269 270 269 269 268 275
235 203 207 217 251 291 203 246 244 173 232 234 230 225 227 226 225 212 205 206 213 215 219 215 212 214 223 223 226 232 239 246 249 252 254 251 251 252 255 257 260 261 262 265 267 271 268 276 277
197 159 132 202 228 249 232 244 222 210 237 221 229 216 218 217 207 196 196 193 195 203 208 210 213 215 214 217 219 223 233 242 251 258 261 261 258 256 258 260 261 261 261 264 265 266 268 269 275
204 183 141 177 207 239 60 221 252 212 176 5 328 103 199 199 200 192 188 190 186 179 182 192 204 213 218 221 226 229 232 237 245 251 261 266 268 267 264 260 261 261 260 258 258 259 265 262 263
194 202 194 181 194 202 118 228 233 64 41 192 82 116 129 159 177 187 179 176 177 175 171 170 171 181 190 203 215 224 232 242 251 252 260 264 266 265 261 259 261 263 260 256 252 259 267 265 259
180 212 27 98 62 196 197 234 278 295 167 125 132 123 115 126 138 146 152 155 159 158 150 148 153 147 142 141 146 161 170 185 212 235 252 263 263 261 260 258 254 257 255 249 253 263 268 266 265
241 149 197 261 165 207 195 260 238 197 189 160 151 135 125 127 129 129 130 131 132 134 134 138 123 106 105 106 111 119 125 131 138 147 221 281 281 272 269 265 257 249 244 242 256 263 263 267 265
170 200 188 254 306 277 192 202 37 44 193 171 149 138 132 131 130 130 128 126 123 120 117 115 121 135 162 185 186 158 143 137 145 103 51 343 323 299 284 278 265 261 260 262 263 264 272 271 269
291 277 223 225 198 211 310 247 5 297 226 157 141 138 133 131 127 125 124 124 121 118 114 112 111 110 110 112 113 106 109 110 81 13 345 329 324 315 300 284 275 275 277 278 280 271 271 275 275
Wind_Speed_850mb
36 32 18 5 9 8 8 5 3 8 7 7 23 10 16 3 5 4 15 38 48 51 49 48 43 39 33 31 37 33 27 31 29 35 31 34 31 29 25 19 15 23 24 18 18 22 20 19 17
35 28 13 5 10 12 8 3 13 8 6 17 17 9 10 4 3 3 31 42 53 52 52 48 46 41 34 34 39 36 34 34 29 34 31 28 25 23 18 15 16 25 24 18 23 23 20 20 22
33 27 8 6 8 15 3 5 2 9 18 16 14 4 5 4 7 14 24 48 53 52 48 47 46 42 38 36 40 37 37 35 32 27 25 21 18 19 20 17 20 21 22 19 19 19 18 19 21
22 6 4 11 21 13 9 2 5 15 11 12 8 9 4 11 10 21 45 53 55 52 47 49 46 42 39 36 36 35 34 33 30 25 19 18 19 20 24 20 20 19 18 17 16 14 14 16 16
17 3 11 14 21 12 11 9 11 18 15 18 15 10 7 11 14 26 52 58 57 53 48 51 45 42 38 34 36 34 28 28 27 25 22 21 26 19 17 22 18 17 15 14 13 11 10 9 10
7 2 14 21 25 15 11 14 12 23 17 15 12 12 8 15 22 32 53 59 56 54 51 49 46 42 38 33 34 33 27 24 29 27 27 26 27 23 19 15 15 13 13 11 9 7 6 5 3
7 8 21 23 24 16 11 11 15 22 23 19 8 12 8 24 28 40 53 58 55 53 51 48 46 43 37 33 32 30 27 26 18 23 25 27 24 19 15 10 9 9 10 10 6 4 2 1 2
6 7 14 17 25 31 6 11 7 23 21 12 14 10 10 32 39 47 54 56 53 55 49 50 50 46 43 37 34 28 25 25 22 19 19 19 21 21 19 15 12 11 10 9 8 8 8 8 7
11 12 22 22 19 17 6 14 10 10 12 15 18 7 11 30 44 52 57 59 57 56 53 57 55 47 44 40 37 32 26 24 24 23 18 17 17 17 16 17 15 14 12 10 10 10 12 12 13
23 20 32 13 12 10 8 12 9 14 19 18 19 23 20 38 48 59 65 68 66 63 59 58 58 49 46 45 41 36 31 27 27 29 25 22 20 17 17 16 14 13 12 10 9 8 11 12 14
17 30 26 17 17 14 12 11 8 14 17 29 33 32 34 44 51 58 65 69 69 62 59 60 60 56 48 46 44 40 36 30 26 23 23 25 23 18 13 12 10 10 9 7 6 7 10 12 13
25 30 37 30 19 10 10 8 9 19 9 7 21 33 40 48 54 60 66 69 70 65 61 59 57 56 52 46 45 42 37 32 27 25 23 25 22 18 16 14 14 12 12 11 11 13 13 13 14
30 35 34 36 20 15 9 19 19 24 21 23 12 31 41 44 46 48 58 64 68 68 65 61 59 56 53 50 45 42 38 33 28 26 24 24 24 21 20 18 17 17 16 15 16 16 17 18 18
4 36 40 33 27 18 20 36 12 18 8 18 21 28 37 42 45 44 52 63 70 69 67 63 59 55 53 51 47 42 38 33 32 30 28 26 25 24 23 22 22 21 21 20 21 21 21 22 23
18 21 21 31 38 27 21 33 28 46 30 14 19 24 33 37 41 47 48 56 61 66 64 65 62 55 55 51 47 44 39 37 35 32 31 30 29 28 27 27 26 25 25 27 27 26 26 27 28
17 21 31 22 29 17 36 47 32 45 42 41 26 25 30 36 39 40 42 44 53 61 65 62 61 58 56 55 50 48 44 41 40 38 36 35 34 33 33 32 29 27 29 30 30 29 30 30 30
21 29 44 32 26 20 37 31 25 20 27 42 34 27 28 31 37 38 39 41 44 57 64 58 56 56 55 54 53 51 46 45 43 42 40 38 36 35 34 34 31 30 33 33 33 33 33 32 31
25 35 23 35 21 20 30 26 5 5 20 31 25 29 31 34 38 39 41 40 43 48 54 52 53 54 50 48 48 48 47 48 49 46 45 39 38 37 37 36 34 35 36 37 38 38 39 38 38
10 16 30 27 11 20 34 27 30 13 12 16 28 29 31 41 32 35 38 42 42 44 49 53 54 53 51 53 52 50 49 44 44 44 43 42 41 41 43 43 40 41 43 42 42 41 38 39 36
33 19 13 11 8 15 16 22 26 24 28 32 28 22 27 27 37 38 38 42 49 49 51 53 56 54 55 54 50 49 44 46 42 40 37 35 39 41 42 41 38 39 43 42 39 39 43 45 43
30 27 21 12 14 9 7 23 17 18 35 25 33 33 24 25 34 35 36 44 46 51 50 49 51 52 52 51 49 51 49 47 44 41 36 37 37 36 36 35 36 36 37 40 37 38 44 42 37
28 22 28 23 14 11 4 12 14 29 26 21 33 33 42 29 27 33 37 42 45 48 46 47 47 47 48 49 52 50 47 47 40 36 33 33 32 33 33 33 35 36 37 39 40 37 35 36 38
11 14 28 26 16 9 8 8 17 4 20 30 33 33 42 40 28 29 32 35 42 45 47 47 47 47 45 45 46 46 46 43 44 42 38 36 35 35 36 37 37 37 38 38 38 37 36 35 37
10 8 7 9 13 17 21 14 9 10 12 5 1 11 25 40 31 30 32 27 28 33 38 43 45 47 47 44 44 45 42 43 44 42 43 43 43 44 46 44 44 44 43 40 38 36 34 32 39
18 23 9 9 12 15 2 12 22 7 4 4 4 3 10 25 34 34 34 32 27 26 28 30 33 36 37 38 40 42 43 43 44 48 46 44 44 45 42 43 45 46 44 42 38 35 34 35 36
31 28 6 11 12 15 4 13 7 3 4 3 5 8 10 15 24 32 31 34 31 28 26 23 22 19 18 20 23 25 26 28 29 30 31 32 34 34 36 39 39 38 37 37 36 34 35 39 42
14 17 4 8 2 6 10 6 17 6 2 7 9 15 15 18 23 27 28 26 26 29 30 22 19 18 16 14 13 11 9 7 7 8 10 14 16 18 23 25 25 26 27 26 31 35 35 39 40
8 13 8 2 9 8 6 8 9 5 7 10 11 18 21 26 32 35 36 36 37 36 38 40 30 31 27 24 22 20 18 14 11 5 1 5 7 11 15 17 19 22 24 27 31 34 36 38 39
6 9 2 4 4 4 3 4 5 2 5 17 16 18 26 34 40 43 45 44 44 43 40 39 35 34 30 24 15 13 12 7 3 3 2 4 4 7 9 11 14 18 22 26 28 32 33 35 37
7 6 19 15 9 2 3 4 5 7 3 18 20 22 31 38 41 43 45 46 47 46 44 41 37 34 31 24 19 14 9 6 3 3 4 7 8 9 10 13 15 17 20 24 27 27 29 31 29
Wind_Direction_850mb
341 345 336 310 242 244 236 206 271 202 200 161 147 175 191 5 219 12 156 166 168 164 166 162 162 163 157 153 147 138 135 133 134 130 128 133 139 138 148 141 139 136 119 129 124 118 102 94 92
337 339 329 274 256 237 212 167 223 201 137 147 155 145 184 133 169 164 151 164 165 166 164 166 165 164 159 155 152 145 146 150 140 145 148 149 152 159 156 147 138 146 130 117 106 104 99 92 88
334 330 283 265 253 246 268 162 248 155 151 173 163 192 157 145 182 160 165 161 163 167 163 169 167 166 161 159 160 156 152 156 152 156 163 170 166 160 155 146 139 126 120 112 103 105 102 92 87
342 331 271 247 247 250 260 262 181 162 191 194 192 170 161 179 165 170 167 164 166 170 168 168 168 170 167 166 164 164 164 173 176 181 179 168 149 140 140 137 124 115 110 111 107 101 101 100 93
334 243 255 253 252 261 236 259 216 190 179 184 187 166 150 192 172 174 167 168 170 171 170 169 171 174 172 172 170 173 174 181 187 189 186 170 143 144 143 133 126 121 119 112 109 109 104 101 95
283 235 240 251 243 256 258 220 204 218 190 170 196 170 160 192 177 173 171 170 172 174 171 170 176 178 178 176 178 179 176 180 192 188 184 167 162 156 158 135 127 137 137 131 122 114 111 113 115
255 245 249 259 265 262 255 180 209 205 191 196 181 199 171 183 174 175 174 171 174 176 172 170 176 182 182 181 180 180 181 184 193 177 174 167 167 179 183 171 160 149 156 155 159 165 162 227 291
205 247 239 240 246 260 234 201 216 187 195 183 177 207 188 196 175 175 176 177 175 179 175 176 177 184 185 185 186 186 184 188 198 188 179 176 173 179 184 185 186 181 180 185 202 222 234 249 265
197 227 239 235 222 242 189 226 185 201 169 187 195 178 187 182 175 176 179 183 183 182 183 184 182 182 184 188 191 192 195 195 199 210 198 193 189 191 200 205 202 201 203 211 223 235 248 263 273
210 226 227 227 225 268 271 248 222 188 189 202 194 201 178 178 183 182 185 187 188 187 188 190 188 184 186 189 194 196 201 204 206 210 206 193 196 199 203 212 214 212 215 224 231 247 261 269 279
215 234 224 223 230 238 273 266 244 230 208 218 210 192 186 183 187 189 191 194 193 191 192 193 193 193 189 191 195 200 204 205 205 207 198 194 191 197 202 204 206 202 201 224 258 284 281 274 281
243 230 232 233 232 200 229 272 253 235 257 177 220 204 197 191 193 194 194 198 196 195 196 195 197 198 198 197 199 205 208 211 213 211 202 203 207 208 212 218 222 223 233 252 269 277 281 282 286
232 238 234 239 227 232 242 251 273 263 258 257 256 205 205 201 198 198 201 202 203 201 200 199 199 199 201 203 204 207 210 213 217 222 219 216 219 221 226 230 236 242 250 257 267 274 279 282 287
297 238 237 242 243 231 237 253 239 258 251 230 224 212 206 205 199 198 199 201 206 205 204 204 203 202 204 207 210 211 212 215 219 223 225 226 229 232 236 241 245 249 254 261 265 271 280 287 290
261 254 238 235 241 237 224 252 231 246 254 248 225 214 210 211 203 209 206 204 207 209 210 210 206 205 209 211 214 216 217 219 223 228 231 232 234 236 240 244 249 254 260 262 267 272 278 283 287
224 227 236 218 207 220 188 248 231 245 240 246 233 220 220 217 214 209 208 209 213 210 214 211 208 210 214 217 219 221 223 225 228 231 234 237 238 239 243 248 252 258 259 263 268 272 277 282 285
217 225 223 231 211 211 204 238 237 221 218 238 229 221 223 218 220 213 209 207 209 211 214 209 209 214 218 221 224 226 229 232 235 237 239 240 241 242 247 252 254 256 260 263 266 270 275 280 286
227 226 221 219 195 220 216 230 215 183 228 244 233 223 227 225 228 222 215 209 213 213 214 211 213 216 218 222 224 227 229 234 236 237 240 242 245 247 251 255 253 253 257 264 269 270 273 277 284
326 242 241 236 231 217 227 221 229 207 207 243 242 234 232 236 231 228 229 225 220 216 214 215 216 216 217 220 222 226 229 231 233 237 242 245 249 251 254 257 259 258 259 262 268 271 275 281 287
250 268 264 256 241 223 235 239 236 221 235 225 239 246 238 230 233 229 226 225 222 220 219 218 220 221 223 225 228 233 238 240 243 245 246 247 248 250 253 256 262 266 264 261 266 268 274 278 282
235 236 252 274 326 226 259 247 226 231 240 249 242 240 244 238 230 226 222 222 222 221 220 223 226 227 229 231 234 236 240 243 244 243 244 245 247 250 255 259 264 269 272 271 270 269 271 275 283
223 217 230 252 286 247 248 256 197 227 226 223 238 230 236 237 235 226 216 217 217 218 219 221 222 225 228 228 232 237 243 247 251 255 254 255 253 254 254 256 258 262 267 269 270 269 269 268 275
235 203 207 217 251 291 203 246 244 173 232 234 230 225 227 226 225 212 205 206 213 215 219 215 212 214 223 223 226 232 239 246 249 252 254 251 251 252 255 257 260 261 262 265 267 271 268 276 277
197 159 132 202 228 249 232 244 222 210 237 221 229 216 218 217 207 196 196 193 195 203 208 210 213 215 214 217 219 223 233 242 251 258 261 261 258 256 258 260 261 261 261 264 265 266 268 269 275
204 183 141 177 207 239 60 221 252 212 176 5 328 103 199 199 200 192 188 190 186 179 182 192 204 213 218 221 226 229 232 237 245 251 261 266 268 267 264 260 261 261 260 258 258 259 265 262 263
194 202 194 181 194 202 118 228 233 64 41 192 82 116 129 159 177 187 179 176 177 175 171 170 171 181 190 203 215 224 232 242 251 252 260 264 266 265 261 259 261 263 260 256 252 259 267 265 259
180 212 27 98 62 196 197 234 278 295 167 125 132 123 115 126 138 146 152 155 159 158 150 148 153 147 142 141 146 161 170 185 212 235 252 263 263 261 260 258 254 257 255 249 253 263 268 266 265
241 149 197 261 165 207 195 260 238 197 189 160 151 135 125 127 129 129 130 131 132 134 134 138 123 106 105 106 111 119 125 131 138 147 221 281 281 272 269 265 257 249 244 242 256 263 263 267 265
170 200 188 254 306 277 192 202 37 44 193 171 149 138 132 131 130 130 128 126 123 120 117 115 121 135 162 185 186 158 143 137 145 103 51 343 323 299 284 278 265 261 260 262 263 264 272 271 269
291 277 223 225 198 211 310 247 5 297 226 157 141 138 133 131 127 125 124 124 121 118 114 112 111 110 110 112 113 106 109 110 81 13 345 329 324 315 300 284 275 275 277 278 280 271 271 275 275